Location: Cambridge
(43.3830°N, 80.3170°W)
Time: 14:12:56
(UTC-04:00)

Tiangong 2 - Pass Details

Date: 22 March 2019
Orbit: 378 x 390 km, 42.8° (Epoch: 24 April)

Event Time Altitude Azimuth Distance (km) Brightness Sun altitude
Exits shadow 06:52:38 - 253° (WSW) 1,579 3.5 -6.0°
Reaches altitude 10° 06:53:24 10° 243° (WSW) 1,399 3.3 -5.9°
Maximum altitude 06:54:58 13° 213° (SSW) 1,228 3.3 -5.6°
Drops below altitude 10° 06:56:32 10° 183° (S) 1,399 3.8 -5.3°
Sets 06:59:25 0° 154° (SSE) 2,251 5.2 -4.8°
